Вернуться в каталог

FENGYUN 1C DEB

АктивенSSO
NORAD 30252·DEBRIS·🇨🇳 China

Запущен May 10, 1999 с Taiyuan Satellite Launch Center

Loading…

Ближайшие Пролёты (ближайшие 24 часа)

TLE

СвежийSource: Space-Track

Эпоха: Sep 14, 2026, 06:21 UTC

1 30252U 99025XM  26257.26496851  .00000486  00000-0  29333-3 0  9991
2 30252  98.7346 269.3888 0066357 180.8001 239.7183 14.10095153  8460

Отслеживайте FENGYUN 1C DEB в реальном времени с AllMySat

Download on the App Store